Flag for Czech Republic Weather past 2 weeks in Tábor, Czech Republic

Now
49 °F

Fog.


Feels Like: 48 °F
Forecast: 37 / 53 °F
Wind: 5 mph from Northeast

Location: Kocelovice

Current Time: Apr 28, 2015 at 6:24:17 AM

Latest Report: Apr 28, 2015 at 5:00 AM


Visibility: 4 mi

Pressure: 29.60 "Hg

Humidity: 95%

Dew point: 48 °F

Location of TáborLocation

Historic Weather in Tábor — Graph

°F

Tábor temperature yesterday

Maximum temperature yesterday: 69 °F (at 5:00 PM)
Minimum temperature yesterday: 42 °F (at 6:00 AM)
Average temperature yesterday: 57 °F

Past Weeks' High & Low Weather Summary

 TemperatureHumidityPressure
High70 °F (Apr 15, 4:00 PM)98% (Apr 27, 4:00 AM)30.46 "Hg (Apr 27, 4:00 AM)
Low30 °F (Apr 19, 4:00 AM)20% (Apr 21, 5:00 PM)29.47 "Hg (Apr 27, 5:00 PM)
Average51 °F60%30.06 "Hg
* Reported Apr 13 4:00 AM — Apr 28 4:00 AM, Tábor, Weather by CustomWeather, © 2015

Note: Actual official high and low records may vary slightly from our data, if they occured in-between our weather recording intervals... More about our weather records

Advertising

Tábor weather history for previous 24 hours

 ConditionsComfort  
Time TempWeatherWind HumidityBarometerVisibility
4:00 AM
Tue, Apr 28
51 °FFog.3 mph96%29.60 "Hg2 mi
3:00 AM51 °FFog.3 mph94%29.59 "Hg4 mi
2:00 AM51 °FFog.5 mph94%29.59 "Hg4 mi
1:00 AM51 °FCool.6 mph91%29.58 "Hg12 mi
12:00 AM52 °FCool.5 mph87%29.56 "Hg12 mi
10:00 PM
Mon, Apr 27
57 °FLight rain. Overcast.2 mph76%29.53 "Hg9 mi
9:00 PM59 °FThundershowers. Overcast.N/A67%29.50 "Hg7 mi
8:00 PM62 °FOvercast.N/A54%29.47 "Hg47 mi
7:00 PM65 °FPartly sunny.5 mph48%29.47 "Hg47 mi
6:00 PM67 °FPartly sunny.5 mph43%29.47 "Hg43 mi
5:00 PM69 °FOvercast.3 mph43%29.47 "Hg43 mi
4:00 PM68 °FOvercast.N/A46%29.50 "Hg37 mi
3:00 PM68 °FOvercast.N/A47%29.50 "Hg37 mi
2:00 PM67 °FOvercast.3 mph55%29.53 "Hg37 mi
1:00 PM66 °FOvercast.5 mph56%29.54 "Hg37 mi
12:00 PM65 °FPartly sunny.3 mph60%29.56 "Hg37 mi
11:00 AM61 °FPartly sunny.3 mph68%29.57 "Hg37 mi
10:00 AM58 °FPartly sunny.3 mph74%29.59 "Hg37 mi
9:00 AM53 °FOvercast.3 mph79%29.62 "Hg37 mi
8:00 AM49 °FFog.2 mph87%29.64 "Hg2 mi
7:00 AM46 °FCool.2 mph92%29.66 "Hg12 mi
6:00 AM42 °FQuite cool.3 mph97%29.67 "Hg9 mi
Weather by CustomWeather, © 2015

See weather overviewHow to use our weather pages